EW7180 Weather Reports


Display with metric or nautical units.
time (UTC)temp
F
wind
direction
speed
MPH
gust
MPH
rain 1hr
in
rain 24hr
in
rain mn
in
humidity
%
barometer
mb
20191117083206 53 90 0.0 4.0 0.00 0.02 0.02 87 1013.9
20191117082706 53 90 1.0 4.0 0.00 0.02 0.02 87 1013.9
20191117082207 52 68 1.0 4.0 0.00 0.02 0.02 87 1014.1
20191117081706 51 45 0.0 1.0 0.00 0.02 0.02 90 1014.1
20191117081206 51 113 0.0 3.0 0.00 0.02 0.02 90 1014.1
20191117080706 51 68 0.0 3.0 0.00 0.02 0.02 90 1014.1
20191117080206 50 90 1.0 3.0 0.00 0.02 0.02 90 1014.7
20191117075706 50 90 1.0 4.0 0.00 0.02 0.02 90 1014.7
20191117075206 49 23 1.0 4.0 0.00 0.02 0.02 91 1014.7
20191117074706 49 68 2.0 4.0 0.00 0.02 0.02 91 1014.7
20191117074205 49 135 1.0 3.0 0.00 0.02 0.02 91 1014.9
20191117073706 48 113 1.0 4.0 0.00 0.02 0.02 91 1014.9
20191117073206 48 113 1.0 5.0 0.00 0.02 0.02 91 1014.9
20191117072706 48 113 2.0 5.0 0.00 0.02 0.02 91 1014.9
20191117072206 47 23 2.0 4.0 0.00 0.02 0.02 92 1014.9
20191117071706 47 23 2.0 4.0 0.00 0.02 0.02 91 1014.1
20191117071206 47 90 2.0 4.0 0.00 0.02 0.02 91 1014.1
20191117070705 46 23 2.0 3.0 0.00 0.02 0.02 91 1014.1
20191117070207 46 45 2.0 3.0 0.00 0.02 0.02 90 1013.0
20191117065706 46 135 1.0 3.0 0.00 0.02 0.02 90 1013.0
20191117065205 46 68 1.0 3.0 0.00 0.02 0.02 89 1013.0
20191117064707 46 113 2.0 3.0 0.00 0.02 0.02 89 1013.0
20191117064205 46 135 1.0 3.0 0.00 0.02 0.02 89 1013.3
20191117063705 47 135 1.0 1.0 0.00 0.02 0.02 87 1013.3
20191117063206 47 113 0.0 2.0 0.00 0.02 0.02 87 1013.3
20191117062706 48 113 0.0 3.0 0.00 0.02 0.02 86 1013.3
20191117062206 49 113 1.0 4.0 0.00 0.02 0.02 85 1013.0
20191117061705 50 113 2.0 5.0 0.00 0.02 0.02 84 1013.0
20191117061205 51 113 3.0 5.0 0.00 0.02 0.02 85 1013.0
20191117060706 51 90 4.0 9.0 0.00 0.02 0.02 85 1013.0
20191117060206 51 90 5.0 9.0 0.00 0.02 0.02 85 1013.0
20191117055705 51 90 7.0 9.0 0.00 0.02 0.02 86 1013.5
20191117055205 50 113 7.0 9.0 0.00 0.02 0.02 86 1013.5
20191117054705 50 90 6.0 7.0 0.00 0.02 0.02 87 1013.5
20191117054205 49 90 5.0 7.0 0.00 0.02 0.02 88 1013.2
20191117053705 49 90 4.0 4.0 0.00 0.02 0.02 88 1013.2
20191117053206 49 68 2.0 4.0 0.00 0.02 0.02 87 1013.2
20191117052706 49 45 2.0 4.0 0.00 0.02 0.02 87 1013.2
20191117052206 49 45 2.0 4.0 0.00 0.02 0.02 87 1013.2
20191117051706 49 45 2.0 6.0 0.00 0.02 0.02 86 1013.2
20191117051206 50 68 4.0 6.0 0.00 0.02 0.02 86 1013.2
20191117050706 50 68 5.0 8.0 0.00 0.02 0.02 86 1013.2
20191117050206 51 90 6.0 8.0 0.00 0.02 0.02 86 1013.4
20191117045706 51 68 6.0 8.0 0.00 0.02 0.02 86 1013.4
20191117045206 51 68 6.0 7.0 0.00 0.02 0.02 87 1013.4
20191117044705 51 90 6.0 7.0 0.00 0.02 0.02 87 1013.4
20191117044206 51 135 7.0 7.0 0.00 0.02 0.02 87 1013.6
20191117043706 50 90 6.0 7.0 0.00 0.02 0.02 88 1013.6
20191117043206 50 90 6.0 7.0 0.00 0.02 0.02 88 1013.6
20191117042705 50 68 5.0 6.0 0.00 0.02 0.02 88 1013.6
20191117042205 50 90 4.0 7.0 0.00 0.02 0.02 88 1013.8
20191117041705 50 68 4.0 7.0 0.00 0.02 0.02 88 1013.8
20191117041205 50 68 4.0 8.0 0.00 0.02 0.02 88 1013.8
20191117040705 50 68 5.0 8.0 0.00 0.02 0.02 87 1013.8
20191117040206 51 45 5.0 8.0 0.00 0.02 0.02 88 1013.8
20191117035706 51 45 4.0 5.0 0.00 0.02 0.02 88 1013.8
20191117035206 51 68 3.0 6.0 0.00 0.02 0.02 87 1013.8
20191117034706 51 45 3.0 6.0 0.00 0.02 0.02 88 1013.8
20191117034206 51 45 4.0 8.0 0.00 0.02 0.02 87 1013.6
20191117033705 51 90 4.0 8.0 0.00 0.02 0.02 88 1013.6
20191117033206 51 90 4.0 8.0 0.00 0.02 0.02 88 1013.6
20191117032705 51 68 4.0 6.0 0.00 0.02 0.02 89 1013.6
20191117032205 51 45 4.0 5.0 0.00 0.02 0.02 90 1013.6
20191117031706 50 68 3.0 4.0 0.00 0.02 0.02 91 1013.9
20191117031206 50 23 3.0 5.0 0.00 0.02 0.02 91 1013.9
20191117030705 49 0 3.0 5.0 0.00 0.02 0.02 91 1013.9
20191117030206 49 68 3.0 5.0 0.00 0.02 0.02 91 1014.4
20191117025706 49 45 3.0 3.0 0.00 0.02 0.02 90 1014.4
20191117025205 49 45 2.0 3.0 0.00 0.02 0.02 90 1014.4
20191117024706 49 23 0.0 2.0 0.00 0.02 0.02 90 1014.4
20191117024206 49 113 0.0 1.0 0.00 0.02 0.02 89 1014.3
20191117023705 49 45 0.0 3.0 0.00 0.02 0.02 88 1014.3
20191117023206 50 68 1.0 3.0 0.00 0.02 0.02 88 1014.3
20191117022705 50 45 2.0 3.0 0.00 0.02 0.02 88 1014.3
20191117022206 51 23 2.0 4.0 0.00 0.02 0.02 88 1014.4
20191117021705 51 45 2.0 5.0 0.00 0.02 0.02 88 1014.4
20191117021206 51 68 2.0 5.0 0.00 0.02 0.02 88 1014.4
20191117020706 51 90 3.0 5.0 0.00 0.02 0.02 88 1014.4
20191117020206 51 45 3.0 4.0 0.00 0.02 0.02 88 1014.6
20191117015705 52 23 3.0 5.0 0.00 0.02 0.02 88 1014.6
20191117015206 52 68 4.0 8.0 0.00 0.02 0.02 88 1014.6
20191117014705 52 45 5.0 8.0 0.00 0.02 0.02 88 1014.6
20191117014206 52 113 6.0 8.0 0.00 0.02 0.02 88 1014.6
20191117013705 52 113 6.0 7.0 0.00 0.02 0.02 88 1014.6
20191117013206 52 68 6.0 10.0 0.00 0.02 0.02 88 1014.6
20191117012705 52 113 6.0 10.0 0.00 0.02 0.02 89 1014.6
20191117012206 52 113 7.0 10.0 0.00 0.02 0.02 89 1014.6
20191117011706 52 113 7.0 9.0 0.00 0.02 0.02 89 1014.6
20191117011206 52 113 7.0 9.0 0.00 0.02 0.02 89 1014.6
20191117010707 52 113 7.0 8.0 0.00 0.02 0.02 89 1014.6
20191117010206 52 113 6.0 7.0 0.00 0.02 0.02 89 1014.6
20191117005705 52 113 6.0 9.0 0.00 0.02 0.02 89 1014.8
20191117005206 52 135 6.0 9.0 0.02 0.02 0.02 89 1014.8
20191117004706 52 113 7.0 9.0 0.02 0.02 0.02 89 1014.8
20191117004205 52 90 5.0 6.0 0.02 0.02 0.02 89 1015.1
20191117003706 52 90 4.0 6.0 0.02 0.02 0.02 89 1015.1
20191117003207 52 68 4.0 9.0 0.02 0.02 0.02 89 1015.1
20191117002706 52 68 5.0 9.0 0.02 0.02 0.02 88 1015.1
20191117002205 52 90 5.0 9.0 0.02 0.02 0.02 88 1015.0
20191117001706 52 90 5.0 6.0 0.02 0.02 0.02 88 1015.0
20191117001207 52 113 5.0 8.0 0.02 0.02 0.02 88 1015.0
20191117000707 52 68 6.0 8.0 0.02 0.02 0.02 88 1015.0
20191117000206 52 68 6.0 8.0 0.02 0.02 0.02 87 1015.0
20191116235706 53 113 6.0 10.0 0.02 0.02 0.02 87 1015.0
20191116235206 53 90 6.0 10.0 0.00 0.00 0.00 87 1015.0
20191116234706 53 113 5.0 10.0 0.00 0.00 0.00 85 1015.0
20191116234206 53 68 5.0 7.0 0.00 0.00 0.00 85 1015.3
20191116233706 53 68 5.0 7.0 0.00 0.00 0.00 84 1015.3
20191116233206 53 113 5.0 7.0 0.00 0.00 0.00 84 1015.3
20191116232706 53 113 5.0 7.0 0.00 0.00 0.00 83 1015.3
20191116232206 53 68 5.0 7.0 0.00 0.00 0.00 83 1015.3
20191116231708 53 90 5.0 7.0 0.00 0.00 0.00 82 1015.4
20191116231207 54 113 6.0 7.0 0.00 0.00 0.00 81 1015.4
20191116230706 54 135 6.0 9.0 0.00 0.00 0.00 81 1015.4
20191116230206 54 135 6.0 11.0 0.00 0.00 0.00 81 1015.5
20191116225706 54 158 5.0 11.0 0.00 0.00 0.00 81 1015.5
20191116225206 54 158 5.0 11.0 0.00 0.00 0.00 81 1015.5
20191116224706 54 135 5.0 10.0 0.00 0.00 0.00 81 1015.5
20191116224205 54 158 6.0 10.0 0.00 0.00 0.00 81 1015.5
20191116223705 54 135 6.0 9.0 0.00 0.00 0.00 81 1015.5
20191116223206 54 135 6.0 9.0 0.00 0.00 0.00 81 1015.5
20191116222706 54 135 4.0 9.0 0.00 0.00 0.00 80 1015.5
20191116222206 54 113 4.0 6.0 0.00 0.00 0.00 80 1015.4
20191116221706 54 135 4.0 6.0 0.00 0.00 0.00 80 1015.4
20191116221206 53 180 2.0 6.0 0.00 0.00 0.00 80 1015.4
20191116220706 52 180 1.0 2.0 0.00 0.00 0.00 80 1015.4
20191116220206 53 113 0.0 5.0 0.00 0.00 0.00 80 1015.0
20191116215705 53 45 1.0 5.0 0.00 0.00 0.00 80 1015.0
20191116215206 53 113 2.0 6.0 0.00 0.00 0.00 80 1015.0
20191116214706 53 23 3.0 6.0 0.00 0.00 0.00 80 1015.0
20191116214206 53 23 3.0 6.0 0.00 0.00 0.00 80 1015.0
20191116213706 53 45 3.0 3.0 0.00 0.00 0.00 80 1015.0
20191116213206 53 45 1.0 3.0 0.00 0.00 0.00 79 1015.0
20191116212710 53 45 2.0 3.0 0.00 0.00 0.00 79 1015.0
20191116212205 53 23 2.0 3.0 0.00 0.00 0.00 78 1014.7
20191116211706 53 90 1.0 6.0 0.00 0.00 0.00 78 1014.7
20191116211206 53 68 2.0 7.0 0.00 0.00 0.00 77 1014.7
20191116210706 54 113 4.0 7.0 0.00 0.00 0.00 77 1014.7
20191116210206 54 68 6.0 7.0 0.00 0.00 0.00 77 1015.0
20191116205706 54 90 5.0 6.0 0.00 0.00 0.00 77 1015.0
20191116205207 54 113 3.0 6.0 0.00 0.00 0.00 77 1015.0
20191116204712 54 68 2.0 4.0 0.00 0.00 0.00 76 1015.0
20191116204216 54 90 2.0 4.0 0.00 0.00 0.00 75 1015.0
20191116203705 54 45 2.0 6.0 0.00 0.00 0.00 75 1014.9
20191116203206 55 90 3.0 6.0 0.00 0.00 0.00 73 1014.9
20191116202706 55 180 4.0 6.0 0.00 0.00 0.00 74 1014.9
20191116202206 55 45 4.0 6.0 0.00 0.00 0.00 74 1014.9
20191116201706 54 45 2.0 5.0 0.00 0.00 0.00 75 1014.9
20191116201206 54 338 2.0 7.0 0.00 0.00 0.00 75 1014.9
20191116200706 55 45 2.0 7.0 0.00 0.00 0.00 74 1014.9
20191116195706 55 180 3.0 10.0 0.00 0.00 0.00 74 1015.1
20191116195211 55 113 4.0 10.0 0.00 0.00 0.00 73 1015.1
20191116194706 55 0 4.0 10.0 0.00 0.00 0.00 73 1015.1
20191116194207 55 158 4.0 8.0 0.00 0.00 0.00 73 1015.1
20191116193706 55 23 3.0 8.0 0.00 0.00 0.00 73 1014.9
20191116193205 55 135 4.0 13.0 0.00 0.00 0.00 73 1014.9
20191116192706 55 135 3.0 13.0 0.00 0.00 0.00 73 1014.9
20191116192206 54 113 2.0 6.0 0.00 0.00 0.00 74 1015.1
20191116191705 54 293 1.0 6.0 0.00 0.00 0.00 74 1015.1
20191116191207 55 293 3.0 6.0 0.00 0.00 0.00 73 1015.1
20191116190706 55 203 4.0 6.0 0.00 0.00 0.00 73 1015.1
20191116190206 55 180 3.0 6.0 0.00 0.00 0.00 73 1014.9
20191116185706 55 225 3.0 7.0 0.00 0.00 0.00 73 1014.9
20191116185206 54 180 4.0 7.0 0.00 0.00 0.00 73 1014.9
20191116184706 54 158 4.0 11.0 0.00 0.00 0.00 73 1014.9
20191116184210 54 180 4.0 11.0 0.00 0.00 0.00 74 1015.1
20191116183706 54 135 4.0 11.0 0.00 0.00 0.00 75 1015.1
20191116183206 53 158 2.0 5.0 0.00 0.00 0.00 76 1015.1
20191116182706 53 135 2.0 8.0 0.00 0.00 0.00 76 1015.1
20191116182206 53 135 2.0 8.0 0.00 0.00 0.00 77 1015.1
20191116181706 52 158 2.0 9.0 0.00 0.00 0.00 78 1014.8
20191116181206 52 180 3.0 9.0 0.00 0.00 0.00 78 1014.8
20191116180706 52 158 2.0 3.0 0.00 0.00 0.00 79 1014.8
20191116180206 51 180 2.0 3.0 0.00 0.00 0.00 80 1014.7
20191116175705 51 180 2.0 3.0 0.00 0.00 0.00 79 1014.7
20191116175206 51 158 0.0 2.0 0.00 0.00 0.00 79 1014.7
20191116174706 51 135 0.0 6.0 0.00 0.00 0.00 79 1014.7
20191116174206 51 180 2.0 6.0 0.00 0.00 0.00 78 1014.7
20191116173707 52 135 2.0 6.0 0.00 0.00 0.00 78 1014.7
20191116173206 51 158 2.0 3.0 0.00 0.00 0.00 79 1014.7
20191116172706 51 113 2.0 7.0 0.00 0.00 0.00 79 1014.7
20191116172206 52 90 2.0 7.0 0.00 0.00 0.00 77 1014.6
20191116171711 52 113 2.0 7.0 0.00 0.00 0.00 77 1014.6
20191116171206 52 158 2.0 5.0 0.00 0.00 0.00 78 1014.6
20191116170707 51 158 2.0 5.0 0.00 0.00 0.00 78 1014.6
20191116170213 52 23 2.0 7.0 0.00 0.00 0.00 77 1014.4
20191116165706 52 45 1.0 7.0 0.00 0.00 0.00 77 1014.4
20191116165206 52 45 2.0 7.0 0.00 0.00 0.00 76 1014.4
20191116164706 53 23 2.0 7.0 0.00 0.00 0.00 76 1014.4
20191116164205 52 135 3.0 4.0 0.00 0.00 0.00 75 1014.2
20191116163706 53 23 3.0 4.0 0.00 0.00 0.00 74 1014.2
20191116163206 53 45 1.0 4.0 0.00 0.00 0.00 73 1014.2
20191116162716 54 113 1.0 7.0 0.00 0.00 0.00 72 1014.2
20191116162205 54 45 2.0 7.0 0.00 0.00 0.00 72 1013.6
20191116161706 54 135 2.0 7.0 0.00 0.00 0.00 72 1013.6
20191116161206 54 315 2.0 4.0 0.00 0.00 0.00 71 1013.6
20191116160706 55 45 2.0 4.0 0.00 0.00 0.00 70 1013.6
20191116160205 55 68 2.0 16.0 0.00 0.00 0.00 69 1013.4
20191116155705 55 90 2.0 16.0 0.00 0.00 0.00 69 1013.4
20191116155206 55 45 3.0 16.0 0.00 0.00 0.00 67 1013.4
20191116154706 55 135 4.0 16.0 0.00 0.00 0.00 67 1013.4
20191116154211 55 180 3.0 13.0 0.00 0.00 0.00 67 1013.4
20191116153707 55 135 4.0 13.0 0.00 0.00 0.00 67 1013.4
20191116153206 55 225 5.0 13.0 0.00 0.00 0.00 66 1013.4
20191116152706 56 158 6.0 8.0 0.00 0.00 0.00 66 1013.4
20191116152205 55 135 5.0 6.0 0.00 0.00 0.00 66 1013.4
20191116151710 56 158 4.0 12.0 0.00 0.00 0.00 66 1013.0
20191116151211 56 225 5.0 12.0 0.00 0.00 0.00 65 1013.0
20191116150706 56 180 6.0 12.0 0.00 0.00 0.00 66 1013.0
20191116150209 56 180 6.0 9.0 0.00 0.00 0.00 66 1012.9
20191116145711 56 158 5.0 6.0 0.00 0.00 0.00 66 1012.9
20191116145210 56 180 3.0 5.0 0.00 0.00 0.00 67 1012.9
20191116144711 56 180 1.0 9.0 0.00 0.00 0.00 68 1012.9
20191116144206 56 135 2.0 9.0 0.00 0.00 0.00 67 1012.9
20191116143706 56 158 4.0 9.0 0.00 0.00 0.00 67 1012.6
20191116143205 56 135 5.0 8.0 0.00 0.00 0.00 67 1012.6
20191116142705 56 180 4.0 11.0 0.00 0.00 0.00 66 1012.6
20191116142205 56 158 4.0 11.0 0.00 0.00 0.00 66 1012.6
20191116141706 57 23 5.0 8.0 0.00 0.00 0.00 66 1012.4
20191116141206 56 180 6.0 8.0 0.00 0.00 0.00 66 1012.4
20191116140706 57 158 5.0 7.0 0.00 0.00 0.00 66 1012.4
20191116140207 56 158 3.0 7.0 0.00 0.00 0.00 67 1012.0
20191116135706 56 135 3.0 15.0 0.00 0.00 0.00 67 1012.0
20191116135205 56 23 4.0 15.0 0.00 0.00 0.00 66 1012.0
20191116134706 56 203 4.0 15.0 0.00 0.00 0.00 67 1012.0
20191116134206 56 180 4.0 8.0 0.00 0.00 0.00 67 1012.0
20191116133706 57 180 4.0 8.0 0.00 0.00 0.00 67 1012.0
20191116133207 56 180 4.0 9.0 0.00 0.00 0.00 68 1012.0
20191116132705 57 180 4.0 9.0 0.00 0.00 0.00 68 1012.0
20191116132205 57 203 5.0 13.0 0.00 0.00 0.00 68 1011.5
20191116131706 56 203 4.0 13.0 0.00 0.00 0.00 68 1011.5
20191116131206 56 225 5.0 20.0 0.00 0.00 0.00 68 1011.5
20191116130707 56 113 6.0 20.0 0.00 0.00 0.00 69 1011.5
20191116130206 56 113 9.0 20.0 0.00 0.00 0.00 69 1011.5
20191116125705 57 90 10.0 14.0 0.00 0.00 0.00 69 1011.5
20191116125206 57 113 9.0 18.0 0.00 0.00 0.00 68 1011.5
20191116124706 57 113 10.0 22.0 0.00 0.00 0.00 67 1011.5
20191116124206 57 180 11.0 22.0 0.00 0.00 0.00 66 1011.7
20191116123706 57 113 12.0 22.0 0.00 0.00 0.00 66 1011.7
20191116123211 57 113 12.0 22.0 0.00 0.00 0.00 66 1011.7
20191116122706 57 113 9.0 12.0 0.00 0.00 0.00 66 1011.7
20191116122206 57 135 5.0 16.0 0.00 0.00 0.00 66 1011.8
20191116121706 57 180 6.0 16.0 0.00 0.00 0.00 66 1011.8
20191116121206 57 180 7.0 16.0 0.00 0.00 0.00 67 1011.8
20191116120711 56 113 8.0 16.0 0.00 0.00 0.00 68 1011.8
20191116120207 56 90 7.0 16.0 0.00 0.00 0.00 69 1012.1
20191116115705 56 180 5.0 12.0 0.00 0.00 0.00 71 1012.1
20191116115206 56 113 6.0 12.0 0.00 0.00 0.00 70 1012.1
20191116114706 56 23 7.0 13.0 0.00 0.00 0.00 71 1012.1
20191116114207 56 113 7.0 13.0 0.00 0.00 0.00 71 1012.2
20191116113705 56 90 6.0 10.0 0.00 0.00 0.00 71 1012.2
20191116113206 56 113 4.0 15.0 0.00 0.00 0.00 71 1012.2
20191116112705 56 158 6.0 15.0 0.00 0.00 0.00 71 1012.2
20191116112206 56 113 10.0 21.0 0.00 0.00 0.00 71 1011.5
20191116111707 56 113 13.0 21.0 0.00 0.00 0.00 71 1011.5
20191116111206 56 113 14.0 21.0 0.00 0.00 0.00 71 1011.5
20191116110706 56 113 12.0 19.0 0.00 0.00 0.00 72 1011.5
20191116110205 56 90 10.0 13.0 0.00 0.00 0.00 72 1011.5
20191116105706 56 90 8.0 11.0 0.00 0.00 0.00 72 1011.9
20191116105206 56 158 8.0 10.0 0.00 0.00 0.00 72 1011.9
20191116104706 56 158 6.0 10.0 0.00 0.00 0.00 72 1011.9
20191116104206 56 113 4.0 5.0 0.00 0.00 0.00 74 1011.8
20191116103706 55 180 4.0 9.0 0.00 0.00 0.00 75 1011.8
20191116103206 55 23 4.0 15.0 0.00 0.00 0.00 76 1011.8
20191116102708 55 180 6.0 15.0 0.00 0.00 0.00 77 1011.8
20191116102211 55 135 7.0 15.0 0.00 0.00 0.00 77 1011.6
20191116101706 55 113 8.0 16.0 0.00 0.00 0.00 77 1011.6
20191116101206 55 113 9.0 16.0 0.00 0.00 0.00 78 1011.6
20191116100706 55 90 10.0 16.0 0.00 0.00 0.00 79 1011.6
20191116100207 54 90 11.0 15.0 0.00 0.00 0.00 79 1011.3
20191116095706 54 68 12.0 16.0 0.00 0.00 0.00 79 1011.3
20191116095206 54 113 12.0 17.0 0.00 0.00 0.00 79 1011.3
20191116094706 54 113 13.0 19.0 0.00 0.00 0.00 80 1011.3
20191116094206 54 113 13.0 19.0 0.00 0.00 0.00 80 1011.4
20191116093706 54 113 13.0 19.0 0.00 0.00 0.00 81 1011.4
20191116093206 54 90 11.0 16.0 0.00 0.00 0.00 81 1011.4
20191116092711 54 90 11.0 16.0 0.00 0.00 0.00 81 1011.4
20191116092206 54 90 11.0 15.0 0.00 0.00 0.00 82 1011.4
20191116091205 54 90 9.0 11.0 0.00 0.00 0.00 82 1011.8
20191116090706 53 113 8.0 11.0 0.00 0.00 0.00 82 1011.8
20191116090206 53 158 6.0 11.0 0.00 0.00 0.00 81 1011.0
20191116085706 53 158 6.0 13.0 0.00 0.00 0.00 81 1011.0
20191116085206 53 113 7.0 13.0 0.00 0.00 0.00 81 1011.0
20191116084706 53 135 9.0 13.0 0.00 0.00 0.00 82 1011.0
20191116084205 53 135 9.0 14.0 0.00 0.00 0.00 82 1011.0
20191116083706 53 90 10.0 14.0 0.00 0.00 0.00 82 1011.0